• In Czech Republic
  • List of Countries
  • For 7 days
  • Water Temperature
  • Satellite Maps
  • Weather Map
  • Weather Widgets
  • user-avatar
    Login

    Hourly Weather Hrazdan

    Today, 19 August, Saturday

    Time Temperature Precipitation Wind Pressure Humidity
    00:00 +16°C° 0.2 mm 2 mps 615 mmHg 79%
    01:00 +15°C° 0.1 mm 2 mps 615 mmHg 80%
    02:00 +15°C° 0.1 mm 2 mps 615 mmHg 81%
    03:00 +15°C° 0.1 mm 1 mps 615 mmHg 82%
    04:00 +15°C° 0 mm 1 mps 615 mmHg 82%
    05:00 +15°C° 0 mm 1 mps 615 mmHg 82%
    06:00 +14°C° 0 mm 1 mps 615 mmHg 82%
    07:00 +17°C° 0 mm 2 mps 616 mmHg 72%
    08:00 +19°C° 0 mm 2 mps 617 mmHg 63%
    09:00 +21°C° 0 mm 2 mps 618 mmHg 53%
    10:00 +23°C° 0 mm 2 mps 618 mmHg 49%
    11:00 +25°C° 0 mm 2 mps 618 mmHg 45%
    12:00 +26°C° 0 mm 3 mps 618 mmHg 40%
    13:00 +26°C° 0.1 mm 3 mps 618 mmHg 40%
    14:00 +27°C° 0.1 mm 3 mps 618 mmHg 39%
    15:00 +27°C° 0.1 mm 3 mps 618 mmHg 38%
    16:00 +26°C° 0.1 mm 3 mps 617 mmHg 42%
    17:00 +25°C° 0.1 mm 3 mps 617 mmHg 46%
    18:00 +24°C° 0.1 mm 3 mps 617 mmHg 50%
    19:00 +21°C° 0 mm 3 mps 616 mmHg 55%
    20:00 +19°C° 0 mm 2 mps 616 mmHg 60%
    21:00 +17°C° 0 mm 2 mps 616 mmHg 65%
    22:00 +16°C° 0 mm 2 mps 616 mmHg 65%
    23:00 +16°C° 0 mm 2 mps 616 mmHg 65%

    Tomorrow, 20 August, Sunday

    Time Temperature Precipitation Wind Pressure Humidity
    00:00 +15°C° 0 mm 2 mps 616 mmHg 65%
    01:00 +15°C° 0 mm 2 mps 616 mmHg 66%
    02:00 +14°C° 0 mm 2 mps 615 mmHg 67%
    03:00 +14°C° 0 mm 2 mps 615 mmHg 68%
    04:00 +14°C° 0 mm 2 mps 615 mmHg 68%
    05:00 +14°C° 0 mm 2 mps 615 mmHg 68%
    06:00 +14°C° 0 mm 2 mps 615 mmHg 68%
    07:00 +16°C° 0 mm 2 mps 616 mmHg 59%
    08:00 +19°C° 0 mm 2 mps 617 mmHg 51%
    09:00 +21°C° 0 mm 2 mps 618 mmHg 43%
    10:00 +24°C° 0 mm 2 mps 618 mmHg 39%
    11:00 +25°C° 0 mm 2 mps 618 mmHg 36%
    12:00 +26°C° 0 mm 3 mps 618 mmHg 32%
    13:00 +27°C° 0 mm 3 mps 618 mmHg 31%
    14:00 +27°C° 0 mm 3 mps 618 mmHg 31%
    15:00 +27°C° 0 mm 3 mps 617 mmHg 30%
    16:00 +26°C° 0 mm 3 mps 617 mmHg 34%
    17:00 +25°C° 0 mm 3 mps 616 mmHg 38%
    18:00 +23°C° 0 mm 2 mps 616 mmHg 41%
    19:00 +20°C° 0 mm 2 mps 616 mmHg 44%
    20:00 +19°C° 0 mm 2 mps 615 mmHg 47%
    21:00 +17°C° 0 mm 2 mps 615 mmHg 50%
    22:00 +16°C° 0 mm 2 mps 615 mmHg 50%
    23:00 +16°C° 0 mm 2 mps 615 mmHg 50%

    Day after tomorrow, 21 August, Monday

    Time Temperature Precipitation Wind Pressure Humidity
    00:00 +15°C° 0 mm 2 mps 615 mmHg 50%
    01:00 +15°C° 0 mm 2 mps 615 mmHg 52%
    02:00 +14°C° 0 mm 2 mps 614 mmHg 53%
    03:00 +14°C° 0 mm 2 mps 614 mmHg 55%
    04:00 +14°C° 0 mm 2 mps 614 mmHg 56%
    05:00 +14°C° 0 mm 2 mps 614 mmHg 57%
    06:00 +14°C° 0 mm 2 mps 614 mmHg 58%
    07:00 +17°C° 0 mm 2 mps 615 mmHg 51%
    08:00 +20°C° 0 mm 1 mps 616 mmHg 44%
    09:00 +23°C° 0 mm 1 mps 617 mmHg 37%
    10:00 +25°C° 0 mm 2 mps 617 mmHg 33%
    11:00 +26°C° 0 mm 2 mps 617 mmHg 30%
    12:00 +28°C° 0 mm 2 mps 617 mmHg 27%
    13:00 +28°C° 0 mm 2 mps 617 mmHg 26%
    14:00 +28°C° 0 mm 2 mps 617 mmHg 25%
    15:00 +29°C° 0 mm 2 mps 617 mmHg 24%
    16:00 +27°C° 0 mm 2 mps 616 mmHg 29%
    17:00 +26°C° 0 mm 2 mps 616 mmHg 34%
    18:00 +25°C° 0 mm 1 mps 615 mmHg 39%
    19:00 +21°C° 0 mm 2 mps 615 mmHg 45%
    20:00 +19°C° 0 mm 2 mps 614 mmHg 51%
    21:00 +17°C° 0 mm 2 mps 614 mmHg 58%
    22:00 +17°C° 0 mm 2 mps 614 mmHg 59%
    23:00 +16°C° 0 mm 2 mps 614 mmHg 61%

    22 August, Tuesday

    Time Temperature Precipitation Wind Pressure Humidity
    00:00 +16°C° 0 mm 2 mps 614 mmHg 63%
    01:00 +16°C° 0 mm 2 mps 614 mmHg 63%
    02:00 +15°C° 0 mm 1 mps 613 mmHg 62%
    03:00 +15°C° 0 mm 1 mps 613 mmHg 62%
    04:00 +15°C° 0 mm 1 mps 613 mmHg 59%
    05:00 +15°C° 0 mm 1 mps 613 mmHg 57%
    06:00 +15°C° 0 mm 1 mps 614 mmHg 55%
    07:00 +19°C° 0 mm 1 mps 615 mmHg 46%
    08:00 +22°C° 0 mm 1 mps 616 mmHg 38%
    09:00 +25°C° 0 mm 2 mps 617 mmHg 30%
    10:00 +26°C° 0 mm 2 mps 617 mmHg 27%
    11:00 +28°C° 0 mm 2 mps 617 mmHg 25%
    12:00 +29°C° 0 mm 2 mps 617 mmHg 23%
    13:00 +30°C° 0 mm 2 mps 617 mmHg 22%
    14:00 +30°C° 0 mm 2 mps 616 mmHg 22%
    15:00 +30°C° 0 mm 2 mps 616 mmHg 22%
    16:00 +29°C° 0 mm 2 mps 616 mmHg 27%
    17:00 +27°C° 0 mm 2 mps 615 mmHg 32%
    18:00 +26°C° 0 mm 2 mps 614 mmHg 37%
    19:00 +23°C° 0 mm 2 mps 614 mmHg 42%
    20:00 +20°C° 0 mm 2 mps 614 mmHg 48%
    21:00 +18°C° 0 mm 2 mps 614 mmHg 53%
    22:00 +18°C° 0 mm 2 mps 614 mmHg 54%
    23:00 +17°C° 0 mm 2 mps 614 mmHg 56%

    23 August, Wednesday

    Time Temperature Precipitation Wind Pressure Humidity
    00:00 +17°C° 0 mm 2 mps 614 mmHg 57%
    01:00 +16°C° 0 mm 2 mps 613 mmHg 57%
    02:00 +16°C° 0 mm 2 mps 613 mmHg 58%
    03:00 +15°C° 0 mm 2 mps 613 mmHg 59%
    04:00 +15°C° 0 mm 2 mps 613 mmHg 59%
    05:00 +15°C° 0 mm 2 mps 614 mmHg 59%
    06:00 +15°C° 0 mm 2 mps 614 mmHg 59%
    07:00 +18°C° 0 mm 2 mps 615 mmHg 52%
    08:00 +20°C° 0 mm 2 mps 616 mmHg 45%
    09:00 +24°C° 0 mm 2 mps 617 mmHg 38%
    10:00 +26°C° 0 mm 2 mps 617 mmHg 34%
    11:00 +27°C° 0 mm 2 mps 617 mmHg 31%
    12:00 +29°C° 0 mm 3 mps 617 mmHg 28%
    13:00 +29°C° 0 mm 3 mps 617 mmHg 28%
    14:00 +29°C° 0 mm 3 mps 617 mmHg 27%
    15:00 +29°C° 0 mm 3 mps 617 mmHg 27%
    16:00 +28°C° 0 mm 3 mps 616 mmHg 31%
    17:00 +26°C° 0 mm 3 mps 616 mmHg 35%
    18:00 +25°C° 0 mm 3 mps 616 mmHg 40%
    19:00 +22°C° 0 mm 3 mps 616 mmHg 43%
    20:00 +20°C° 0 mm 3 mps 615 mmHg 45%
    21:00 +18°C° 0 mm 3 mps 615 mmHg 48%
    22:00 +17°C° 0 mm 3 mps 615 mmHg 48%
    23:00 +16°C° 0 mm 3 mps 615 mmHg 48%

    24 August, Thursday

    Time Temperature Precipitation Wind Pressure Humidity
    00:00 +16°C° 0 mm 2 mps 615 mmHg 48%
    01:00 +15°C° 0 mm 2 mps 615 mmHg 50%
    02:00 +15°C° 0 mm 2 mps 615 mmHg 51%
    03:00 +14°C° 0 mm 2 mps 615 mmHg 52%
    04:00 +14°C° 0 mm 2 mps 615 mmHg 54%
    05:00 +14°C° 0 mm 2 mps 615 mmHg 55%
    06:00 +14°C° 0 mm 2 mps 616 mmHg 56%
    07:00 +17°C° 0 mm 2 mps 616 mmHg 50%
    08:00 +20°C° 0 mm 2 mps 617 mmHg 44%
    09:00 +23°C° 0 mm 2 mps 618 mmHg 37%
    10:00 +25°C° 0 mm 2 mps 618 mmHg 34%
    11:00 +27°C° 0 mm 2 mps 619 mmHg 31%
    12:00 +28°C° 0 mm 3 mps 619 mmHg 27%
    13:00 +29°C° 0 mm 3 mps 619 mmHg 27%
    14:00 +29°C° 0 mm 3 mps 619 mmHg 26%
    15:00 +29°C° 0 mm 3 mps 618 mmHg 25%
    16:00 +28°C° 0 mm 3 mps 618 mmHg 29%
    17:00 +26°C° 0 mm 3 mps 617 mmHg 33%
    18:00 +25°C° 0 mm 2 mps 617 mmHg 36%
    19:00 +23°C° 0 mm 2 mps 617 mmHg 39%
    20:00 +20°C° 0 mm 2 mps 616 mmHg 42%
    21:00 +18°C° 0 mm 3 mps 616 mmHg 44%
    22:00 +17°C° 0 mm 2 mps 616 mmHg 44%
    23:00 +16°C° 0 mm 2 mps 616 mmHg 44%
    Show more